Weather History for K1H2 - April, 2013

Change the Weather History Date:

Wednesday, April 3, 2013

  Actual Average (KMTO) Record (KMTO)
Temperature  
Mean Temperature 39 °F 49 °F  
Max Temperature 51 °F 59 °F 84 °F (2012)
Min Temperature 28 °F 39 °F 17 °F (1987)
Degree Days  
Heating Degree Days 26 16  
Month to date heating degree days 50  
Since 1 July heating degree days 4953  
Cooling Degree Days 0 0  
Month to date cooling degree days 0  
Year to date cooling degree days 1  
Moisture  
Dew Point 21 °F    
Average Humidity 47    
Maximum Humidity 79    
Minimum Humidity 30    
Precipitation  
Precipitation 0.00 in 0.09 in 1.90 in (1957)
Month to date precipitation 0.27  
Year to date precipitation 6.82  
Sea Level Pressure  
Sea Level Pressure 30.33 in    
Wind  
Wind Speed 4 mph (NE)    
Max Wind Speed 13 mph    
Max Gust Speed 20 mph    
Visibility 10 miles    
Events      
T = Trace of Precipitation, MM = Missing Value Source: NWS Daily Summary

Daily Weather History Graph

Daily Weather History Graph

Search for Another Location

Airport or City:

Trip Planner

Search our weather history database for the weather conditions in past years. The results will help you decide how hot, cold, wet, or windy it might be!

Date:

Astronomy

Apr. 03, 2013 Rise Set
Actual Time 6:35 AM CDT 7:20 PM CDT
Civil Twilight 6:08 AM CDT 7:47 PM CDT
Nautical Twilight 5:36 AM CDT 8:19 PM CDT
Astronomical Twilight 5:03 AM CDT 8:52 PM CDT
Moon 2:12 AM CDT (4/3) 12:34 PM CDT (4/3)
Length of Visible Light 13h 38m
Length of Day
12h 44m
Last Quarter, 44% of the Moon is Illuminated
Apr 3
Last Quarter
Apr 10
New
Apr 18
First Quarter
Apr 25
Full
May 2
Last Quarter

Hourly Weather History & Observations

Time (CDT) Temp. Windchill Dew Point Humidity Pressure Visibility Wind Dir Wind Speed Gust Speed Precip Events Conditions
12:15 AM 31.8 °F - 24.3 °F 74% 30.30 in 10.0 mi Calm Calm - N/A   Clear
12:35 AM 32.0 °F - 23.9 °F 72% 30.30 in 10.0 mi Calm Calm - N/A   Clear
12:55 AM 33.4 °F 30.4 °F 23.2 °F 66% 30.30 in 10.0 mi North 3.5 mph - N/A   Clear
1:15 AM 34.3 °F 31.4 °F 20.5 °F 57% 30.30 in 10.0 mi North 3.5 mph - N/A   Clear
1:35 AM 33.8 °F 30.8 °F 19.4 °F 56% 30.31 in 10.0 mi North 3.5 mph - N/A   Clear
1:55 AM 33.8 °F 29.6 °F 19.4 °F 56% 30.31 in 10.0 mi North 4.6 mph - N/A   Clear
2:15 AM 33.6 °F 30.6 °F 19.0 °F 55% 30.31 in 10.0 mi NNE 3.5 mph - N/A   Clear
2:35 AM 33.4 °F 30.4 °F 18.3 °F 54% 30.30 in 10.0 mi NNE 3.5 mph - N/A   Clear
2:55 AM 32.7 °F 29.6 °F 19.2 °F 58% 30.30 in 10.0 mi NNE 3.5 mph - N/A   Clear
3:15 AM 32.0 °F - 21.6 °F 65% 30.30 in 10.0 mi Calm Calm - N/A   Clear
3:35 AM 29.8 °F 26.3 °F 23.9 °F 79% 30.30 in 10.0 mi North 3.5 mph - N/A   Clear
3:55 AM 30.9 °F 27.5 °F 21.2 °F 67% 30.30 in 10.0 mi North 3.5 mph - N/A   Clear
4:15 AM 30.7 °F 27.3 °F 21.0 °F 67% 30.31 in 10.0 mi North 3.5 mph - N/A   Clear
4:35 AM 29.8 °F - 21.0 °F 70% 30.31 in 10.0 mi Calm Calm - N/A   Clear
4:55 AM 30.0 °F 26.5 °F 21.4 °F 70% 30.31 in 10.0 mi North 3.5 mph - N/A   Clear
5:15 AM 30.0 °F 25.2 °F 20.3 °F 67% 30.31 in 10.0 mi NNE 4.6 mph - N/A   Clear
5:35 AM 30.9 °F - 19.6 °F 63% 30.31 in 10.0 mi Calm Calm - N/A   Clear
5:55 AM 30.4 °F - 20.3 °F 66% 30.32 in 10.0 mi Calm Calm - N/A   Clear
6:15 AM 28.9 °F 25.2 °F 22.1 °F 76% 30.32 in 10.0 mi North 3.5 mph - N/A   Clear
6:35 AM 28.8 °F - 20.3 °F 71% 30.34 in 10.0 mi Calm Calm - N/A   Clear
6:55 AM 28.6 °F - 21.4 °F 74% 30.36 in 10.0 mi Calm Calm - N/A   Clear
7:15 AM 30.7 °F 26.0 °F 21.0 °F 67% 30.37 in 10.0 mi NNE 4.6 mph - N/A   Clear
7:35 AM 32.0 °F 28.7 °F 21.6 °F 65% 30.38 in 10.0 mi NNE 3.5 mph - N/A   Clear
7:55 AM 33.4 °F 30.4 °F 22.1 °F 63% 30.39 in 10.0 mi NNE 3.5 mph - N/A   Clear
8:15 AM 35.4 °F 31.5 °F 22.6 °F 60% 30.39 in 10.0 mi ENE 4.6 mph - N/A   Clear
8:35 AM 36.5 °F 33.9 °F 20.7 °F 53% 30.40 in 10.0 mi NE 3.5 mph - N/A   Clear
8:55 AM 37.9 °F 34.4 °F 23.5 °F 56% 30.40 in 10.0 mi ENE 4.6 mph - N/A   Clear
9:15 AM 38.7 °F 35.2 °F 23.2 °F 54% 30.40 in 10.0 mi ENE 4.6 mph - N/A   Clear
9:35 AM 40.8 °F 38.8 °F 22.8 °F 49% 30.40 in 10.0 mi NE 3.5 mph - N/A   Clear
9:55 AM 42.8 °F 40.1 °F 21.9 °F 44% 30.40 in 10.0 mi NE 4.6 mph - N/A   Clear
10:15 AM 44.1 °F 41.5 °F 19.9 °F 38% 30.40 in 10.0 mi East 4.6 mph - N/A   Clear
10:35 AM 44.6 °F 39.7 °F 17.8 °F 34% 30.40 in 10.0 mi NE 9.2 mph - N/A   Clear
10:55 AM 44.8 °F 41.6 °F 18.1 °F 34% 30.40 in 10.0 mi ENE 5.8 mph 16.1 mph N/A   Clear
11:15 AM 45.1 °F 42.8 °F 17.6 °F 33% 30.40 in 10.0 mi ENE 4.6 mph 16.1 mph N/A   Clear
11:35 AM 46.4 °F 42.4 °F 18.5 °F 33% 30.40 in 10.0 mi NNE 8.1 mph - N/A   Clear
11:55 AM 46.4 °F 41.9 °F 17.8 °F 32% 30.40 in 10.0 mi ENE 9.2 mph - N/A   Clear
12:15 PM 46.8 °F - 19.2 °F 33% 30.38 in 10.0 mi ENE 6.9 mph - N/A   Clear
12:35 PM 47.8 °F - 19.4 °F 32% 30.37 in 10.0 mi ENE 5.8 mph - N/A   Clear
12:55 PM 47.3 °F - 19.4 °F 33% 30.36 in 10.0 mi East 11.5 mph - N/A   Clear
1:15 PM 47.5 °F - 18.0 °F 31% 30.36 in 10.0 mi ENE 8.1 mph 16.1 mph N/A   Clear
1:35 PM 48.6 °F - 20.7 °F 33% 30.35 in 10.0 mi NE 10.4 mph 19.6 mph N/A   Clear
1:55 PM 49.5 °F - 20.5 °F 32% 30.34 in 10.0 mi ENE 9.2 mph - N/A   Clear
2:15 PM 49.3 °F - 19.6 °F 31% 30.34 in 10.0 mi NE 5.8 mph 16.1 mph N/A   Clear
2:35 PM 50.0 °F - 21.2 °F 32% 30.35 in 10.0 mi NE 9.2 mph 17.3 mph N/A   Clear
2:55 PM 49.5 °F - 19.8 °F 31% 30.34 in 10.0 mi East 10.4 mph - N/A   Clear
3:15 PM 50.0 °F - 21.0 °F 32% 30.34 in 10.0 mi NE 8.1 mph 18.4 mph N/A   Clear
3:35 PM 50.5 °F - 20.3 °F 30% 30.34 in 10.0 mi East 12.7 mph 17.3 mph N/A   Clear
3:55 PM 50.7 °F - 19.8 °F 30% 30.33 in 10.0 mi ESE 9.2 mph - N/A   Clear
4:15 PM 50.4 °F - 19.9 °F 30% 30.32 in 10.0 mi ESE 12.7 mph - N/A   Clear
4:35 PM 50.5 °F - 20.3 °F 30% 30.31 in 10.0 mi ENE 12.7 mph 16.1 mph N/A   Clear
4:55 PM 50.0 °F - 20.1 °F 31% 30.31 in 10.0 mi East 12.7 mph 17.3 mph N/A   Clear
5:15 PM 49.8 °F - 19.4 °F 30% 30.30 in 10.0 mi East 11.5 mph 17.3 mph N/A   Clear
5:35 PM 49.3 °F - 19.6 °F 31% 30.30 in 10.0 mi East 11.5 mph - N/A   Clear
5:55 PM 49.3 °F - 19.6 °F 31% 30.29 in 10.0 mi East 6.9 mph - N/A   Clear
6:15 PM 48.7 °F - 19.6 °F 32% 30.29 in 10.0 mi East 8.1 mph - N/A   Clear
6:35 PM 48.2 °F - 19.4 °F 32% 30.30 in 10.0 mi ENE 6.9 mph - N/A   Clear
6:55 PM 47.5 °F - 19.8 °F 33% 30.29 in 10.0 mi East 4.6 mph - N/A   Clear
7:15 PM 46.4 °F - 19.4 °F 34% 30.28 in 10.0 mi Calm Calm - N/A   Clear
7:35 PM 45.7 °F - 19.0 °F 35% 30.28 in 10.0 mi Calm Calm - N/A   Clear
7:55 PM 44.8 °F 43.3 °F 20.3 °F 38% 30.28 in 10.0 mi NE 3.5 mph - N/A   Clear
8:15 PM 44.6 °F - 20.3 °F 38% 30.28 in 10.0 mi Calm Calm - N/A   Clear
8:35 PM 44.1 °F - 21.0 °F 40% 30.28 in 10.0 mi Calm Calm - N/A   Clear
8:55 PM 43.0 °F - 23.0 °F 45% 30.29 in 10.0 mi Calm Calm - N/A   Clear
9:15 PM 42.8 °F - 21.9 °F 44% 30.30 in 10.0 mi Calm Calm - N/A   Clear
9:35 PM 42.8 °F - 21.2 °F 42% 30.31 in 10.0 mi Calm Calm - N/A   Clear
9:55 PM 42.8 °F 41.1 °F 22.6 °F 45% 30.31 in 10.0 mi ENE 3.5 mph - N/A   Clear
10:15 PM 42.6 °F 39.9 °F 21.7 °F 44% 30.30 in 10.0 mi ENE 4.6 mph - N/A   Clear
10:35 PM 42.6 °F 39.0 °F 21.4 °F 43% 30.29 in 10.0 mi ENE 5.8 mph - N/A   Clear
10:55 PM 42.8 °F 39.3 °F 21.0 °F 42% 30.29 in 10.0 mi ENE 5.8 mph - N/A   Clear
11:15 PM 42.8 °F 38.6 °F 21.2 °F 42% 30.28 in 10.0 mi East 6.9 mph - N/A   Clear
11:35 PM 42.3 °F 37.9 °F 21.6 °F 44% 30.28 in 10.0 mi East 6.9 mph - N/A   Clear
11:55 PM 41.9 °F 39.0 °F 20.8 °F 43% 30.27 in 10.0 mi ENE 4.6 mph - N/A   Clear